This is the latest recevied weather packets stored in our database for station/object EA1CZ-10. If no packets are shown the sender has not sent any weather packets the latest 10 day(s).
| Time | Temp. | Humidity | Pressure | Rain* | Wind** | Luminosity | Snow |
|---|---|---|---|---|---|---|---|
| 1778020485 | 6.67° C | 69% | 1029 hPa | - | - | - | - |
| 1778018685 | 6.11° C | 70% | 1029.1 hPa | - | - | - | - |
| 1778016884 | 5° C | 70% | 1029.2 hPa | - | - | - | - |
| 1778015084 | 4.44° C | 70% | 1029 hPa | - | - | - | - |
| 1778013284 | 6.67° C | 69% | 1029 hPa | - | - | - | - |
| 1778011484 | 7.78° C | 69% | 1028.7 hPa | - | - | - | - |
| 1778009684 | 7.78° C | 69% | 1028.4 hPa | - | - | - | - |
| 1778007884 | 8.89° C | 69% | 1028.4 hPa | - | - | - | - |
| 1778006084 | 8.89° C | 69% | 1028.4 hPa | - | - | - | - |
| 1778004284 | 9.44° C | 69% | 1028.2 hPa | - | - | - | - |
| 1778002483 | 9.44° C | 68% | 1028.4 hPa | - | - | - | - |
| 1778000683 | 8.89° C | 69% | 1028.5 hPa | - | - | - | - |
| 1777998882 | 7.22° C | 67% | 1028.3 hPa | - | - | - | - |
| 1777997082 | 11.67° C | 68% | 1028.2 hPa | - | - | - | - |
| 1777995282 | 7.22° C | 69% | 1028.3 hPa | - | - | - | - |
| 1777991687 | 8.89° C | 69% | 1028.2 hPa | - | - | - | - |
| 1777989887 | 11.67° C | 66% | 1027.9 hPa | - | - | - | - |
| 1777988087 | 11.11° C | 68% | 1027.7 hPa | - | - | - | - |
| 1777986287 | 12.78° C | 68% | 1027.8 hPa | - | - | - | - |
| 1777984487 | 12.78° C | 68% | 1027.8 hPa | - | - | - | - |
| 1777982687 | 13.33° C | 68% | 1027.8 hPa | - | - | - | - |
| 1777980887 | 11.67° C | 69% | 1027.9 hPa | - | - | - | - |
| 1777979087 | 8.89° C | 70% | 1028.1 hPa | - | - | - | - |
| 1777977287 | 7.22° C | 70% | 1028 hPa | - | - | - | - |
| 1777975487 | 6.11° C | 71% | 1027.9 hPa | - | - | - | - |
* Rain since midnight (hover to see other rain measurements)
** Current wind speed in m/s (hover to see current wind gust speed)